User: anonymous   Login
Location: Unspecified
(0.0000°N, 0.0000°E)
Time: 00:55:16
(UTC+00:00)
Language:

Kitsat-3 - Orbit

View from above orbital plane
View from above orbital plane
View from above satellite
View from above satellite

Ground track
Ground track

The orbit data is extracted from the following two-line orbital elements,

1 25756U 99029A   21023.47675541  .00000002  00000-0  11770-4 0  9993
2 25756  98.5085 335.0455 0014053 160.3727 199.8012 14.53819933148533
Epoch (UTC): 23 January 2021 11:26:31
Eccentricity: 0.0014053
inclination: 98.5085°
perigee height: 703 km
apogee height: 723 km
right ascension of ascending node: 335.0455°
argument of perigee: 160.3727°
revolutions per day: 14.53819933
mean anomaly at epoch: 199.8012°
orbit number at epoch: 14853

The dashed part of the orbit path shows where the satellite is in the earth's shadow,  

DLR